COSMOS 1110

Satellite information

Favourite Embed

Satellite Type and Status

PAYLOADIN ORBIT

Key statistics

Satellite COSMOS 1110 at a glance.

Uptime

16970

Days in orbit

Revolutions

≈ 14.3

Per day

Orbit

LEO

Low Earth Orbit

Inclination

74.0

Latest

Satellite identification and parameters

Extended collection of information and parameters for COSMOS 1110.

Object identification

Identified? True

Debris? False

Object name: COSMOS 1110

International designator: 1979-060A

Object number (NORAD): 11425

Object ID (CCSDS): 11425

Country: COMMONWEALTH OF INDEPENDENT STATES (CIS)

Current information (Y/N): Y

RCS size: LARGE

Orbital parameters

Period: 100.406 minutes

Inclination: 74.0139 deg

SMA: 7155.957 km

Apoapsis: 788.071 km

Periapsis: 767.573 km

RAAN: 231.1595 deg

Eccentricy: 0.0014322

Argument of periapsis: 335.6593 deg

Mean anomaly: 24.388 deg

Mean motion: 14.34171861 rev/day

Mean motion (dot): 0.00000248 rev/day2

B* drag term: 0.000097737341 1/REarth

Two-line elements (TLE)

Creation date: Dec. 12, 2025, 10:14 a.m.

Reference frame: TEME

Reference center: EARTH

Epoch: Dec. 12, 2025, 4:26 a.m. UTC

TLE line 0: 0 COSMOS 1110

TLE line 1: 1 11425U 79060A 25346.18496876 .00000248 00000-0 97737-4 0 9995

TLE line 2: 2 11425 74.0139 231.1595 0014322 335.6593 24.3880 14.34171861427577

Live tracking on map

Real-time ground track for satellite COSMOS 1110.

In-orbit conjunctions

A list of the most updated potential collisions computed for object COSMOS 1110.

Target Orbit TCA Probability of collision Miss distance Type
NOAA 14 DEB SSO 2025-11-28 22:04:29 0.0031354 4.0 (m) DEBRIS
NOAA 16 DEB SSO 2025-11-11 08:02:06 0.0001642786 554.0 (m) DEBRIS
COSMOS 2251 DEB LEO 2025-10-26 13:45:58 0.0001487481 194.0 (m) DEBRIS
CZ-6A DEB SSO 2025-09-27 12:29:20 0.0001104883 165.0 (m) DEBRIS
IRIDIUM 63 LEO 2025-06-29 16:52:40 0.0001229858 445.0 (m) PAYLOAD

Associated space launch

Military communications satellite

COSMOS 1110 was lifted into orbit during the mission ‘Kosmos-3M | Strela-2M 20’, on board a Kosmos-3M space rocket.

The launch took place on June 28, 1979, 8:09 p.m. from 132/1 (132L).

For more information about the launch, click the button.

Launch to space Kosmos-3M | Strela-2M 20
Kosmos-3M | Strela-2M 20

Agency: N/A

Status: Launch Successful

Launch date: June 28, 1979, 8:09 p.m. UTC

Rocket: Kosmos-3M

Launch pad: 132/1 (132L)

Location: Plesetsk Cosmodrome, Russian Federation

...

Latest news about this satellite

There are no fresh news available about this satellite. Check back as we update our databases every day.


Newsletter sign-up

Weekly statistics, charts and insights to help you stay on top of the space industry.